Weather History for Bogalusa, LA

Change the Weather History Date:

Monday, March 4, 2013

  Actual Average Record
Temperature  
Mean Temperature 49 °F -  
Max Temperature 67 °F 68 °F 67 °F (2013)
Min Temperature 31 °F 45 °F 31 °F (2013)
Degree Days  
Heating Degree Days 16    
Moisture  
Dew Point 31 °F    
Average Humidity 51    
Maximum Humidity 96    
Minimum Humidity 16    
Precipitation  
Precipitation 0.00 in - - ()
Sea Level Pressure  
Sea Level Pressure 30.06 in    
Wind  
Wind Speed 6 mph (South)    
Max Wind Speed 24 mph    
Max Gust Speed 31 mph    
Visibility 10 miles    
Events      
Averages and records for this station are not official NWS values.
T = Trace of Precipitation, MM = Missing Value Source: NWS Daily Summary

Daily Weather History Graph

Daily Weather History Graph

Search for Another Location

Airport:

Trip Planner

Search our weather history database for the weather conditions in past years. The results will help you decide how hot, cold, wet, or windy it might be!

Date:

Astronomy

Mar. 04, 2013 Rise Set
Actual Time 6:22 AM CST 6:00 PM CST
Civil Twilight 5:58 AM CST 6:24 PM CST
Nautical Twilight 5:30 AM CST 6:52 PM CST
Astronomical Twilight 5:02 AM CST 7:20 PM CST
Moon 12:15 AM CST (3/4) 10:58 AM CST (3/4)
Length of Visible Light 12h 26m
Length of Day
11h 38m
Waning Gibbous, 52% of the Moon is Illuminated
Mar 4
Waning Gibbous
Mar 4
Last Quarter
Mar 11
New
Mar 19
First Quarter
Mar 27
Full

Hourly Weather History & Observations

Time (CST) Temp. Windchill Dew Point Humidity Pressure Visibility Wind Dir Wind Speed Gust Speed Precip Events Conditions
12:15 AM 35.6 °F - 32.4 °F 88% 30.16 in 10.0 mi Calm Calm - N/A   Clear
12:35 AM 35.1 °F - 32.7 °F 91% 30.15 in 10.0 mi Calm Calm - N/A   Clear
12:55 AM 34.9 °F - 32.2 °F 90% 30.15 in 10.0 mi Calm Calm - N/A   Clear
1:15 AM 36.9 °F - 28.8 °F 72% 30.14 in 10.0 mi Calm Calm - N/A   Unknown
1:55 AM 35.2 °F - 32.9 °F 91% 30.15 in 10.0 mi Calm Calm - N/A   Unknown
2:15 AM 34.5 °F - 32.7 °F 93% 30.14 in 10.0 mi Calm Calm - N/A   Unknown
2:35 AM 34.3 °F - 32.2 °F 92% 30.14 in 10.0 mi Calm Calm - N/A   Unknown
2:55 AM 34.0 °F - 32.2 °F 93% 30.14 in 10.0 mi Calm Calm - N/A   Unknown
3:35 AM 32.4 °F - 31.3 °F 96% 30.13 in 10.0 mi Calm Calm - N/A   Unknown
3:55 AM 32.9 °F - 31.8 °F 96% 30.11 in 10.0 mi Calm Calm - N/A   Unknown
4:15 AM 33.1 °F - 31.8 °F 95% 30.12 in 10.0 mi Calm Calm - N/A   Unknown
4:35 AM 32.0 °F - 30.7 °F 95% 30.12 in 10.0 mi Calm Calm - N/A   Unknown
5:15 AM 32.0 °F - 30.7 °F 95% 30.12 in 10.0 mi Calm Calm - N/A   Unknown
5:35 AM 31.5 °F - 30.2 °F 95% 30.13 in 10.0 mi Calm Calm - N/A   Unknown
5:55 AM 31.8 °F - 30.7 °F 96% 30.13 in 10.0 mi Calm Calm - N/A   Unknown
6:15 AM 31.5 °F 28.1 °F 30.2 °F 95% 30.13 in 10.0 mi North 3.5 mph - N/A   Unknown
6:35 AM 31.3 °F - 30.2 °F 96% 30.13 in 10.0 mi Calm Calm - N/A   Unknown
6:55 AM 32.0 °F - 31.1 °F 96% 30.13 in 10.0 mi Calm Calm - N/A   Unknown
7:15 AM 33.8 °F - 32.4 °F 94% 30.13 in 10.0 mi Calm Calm - N/A   Unknown
7:35 AM 38.1 °F - 36.5 °F 94% 30.13 in 7.0 mi Calm Calm - N/A   Unknown
7:55 AM 46.0 °F 44.8 °F 32.4 °F 59% 30.13 in 10.0 mi SSE 3.5 mph - N/A   Unknown
8:15 AM 50.4 °F - 30.2 °F 46% 30.14 in 10.0 mi South 6.9 mph - N/A   Unknown
8:35 AM 52.9 °F - 29.7 °F 41% 30.13 in 10.0 mi SSE 9.2 mph - N/A   Unknown
8:55 AM 54.3 °F - 27.7 °F 36% 30.14 in 10.0 mi South 11.5 mph - N/A   Unknown
9:15 AM 56.1 °F - 27.3 °F 33% 30.14 in 10.0 mi South 11.5 mph 16.1 mph N/A   Unknown
9:35 AM 57.6 °F - 27.3 °F 31% 30.14 in 10.0 mi South 10.4 mph 17.3 mph N/A   Unknown
9:55 AM 59.9 °F - 26.2 °F 28% 30.13 in 10.0 mi South 13.8 mph 23.0 mph N/A   Unknown
10:15 AM 61.2 °F - 25.2 °F 25% 30.13 in 10.0 mi SSW 17.3 mph 24.2 mph N/A   Unknown
10:35 AM 62.4 °F - 22.8 °F 22% 30.12 in 10.0 mi South 17.3 mph 24.2 mph N/A   Unknown
10:55 AM 63.7 °F - 19.6 °F 18% 30.11 in 10.0 mi SSW 16.1 mph 25.3 mph N/A   Unknown
11:15 AM 64.8 °F - 18.7 °F 17% 30.11 in 10.0 mi SSW 15.0 mph 25.3 mph N/A   Unknown
11:35 AM 65.7 °F - 18.5 °F 16% 30.09 in 10.0 mi SSE 17.3 mph 25.3 mph N/A   Unknown
11:55 AM 65.5 °F - 19.8 °F 17% 30.08 in 10.0 mi South 19.6 mph 26.5 mph N/A   Unknown
12:15 PM 65.7 °F - 21.7 °F 19% 30.07 in 10.0 mi SSW 16.1 mph 27.6 mph N/A   Unknown
12:35 PM 66.7 °F - 24.4 °F 20% 30.07 in 10.0 mi South 16.1 mph 26.5 mph N/A   Unknown
12:55 PM 67.3 °F - 23.5 °F 19% 30.05 in 10.0 mi South 18.4 mph 26.5 mph N/A   Unknown
1:15 PM 65.8 °F - 25.9 °F 22% 30.04 in 10.0 mi South 20.7 mph 27.6 mph N/A   Unknown
1:35 PM 66.6 °F - 25.0 °F 21% 30.03 in 10.0 mi SSW 19.6 mph 25.3 mph N/A   Unknown
1:55 PM 67.6 °F - 22.8 °F 18% 30.02 in 10.0 mi SSW 24.2 mph 31.1 mph N/A   Unknown
2:15 PM 67.6 °F - 22.5 °F 18% 30.01 in 10.0 mi SSW 16.1 mph 29.9 mph N/A   Unknown
2:35 PM 66.4 °F - 24.3 °F 20% 30.01 in 10.0 mi South 17.3 mph 29.9 mph N/A   Unknown
2:55 PM 66.4 °F - 25.7 °F 22% 30.01 in 10.0 mi South 17.3 mph 26.5 mph N/A   Unknown
3:15 PM 66.2 °F - 26.6 °F 23% 30.00 in 10.0 mi SSW 17.3 mph 24.2 mph N/A   Unknown
3:35 PM 65.7 °F - 27.3 °F 24% 29.98 in 10.0 mi SSW 19.6 mph 28.8 mph N/A   Unknown
3:55 PM 66.2 °F - 27.7 °F 24% 29.99 in 10.0 mi South 16.1 mph 26.5 mph N/A   Unknown
4:15 PM 65.8 °F - 28.9 °F 25% 29.99 in 10.0 mi South 16.1 mph 24.2 mph N/A   Unknown
4:35 PM 65.5 °F - 30.0 °F 26% 30.00 in 10.0 mi SSW 16.1 mph 20.7 mph N/A   Unknown
4:55 PM 65.3 °F - 30.7 °F 27% 29.99 in 10.0 mi SSW 13.8 mph 26.5 mph N/A   Unknown
5:35 PM 64.4 °F - 32.2 °F 30% 29.98 in 10.0 mi South 13.8 mph 20.7 mph N/A   Unknown
5:55 PM 63.5 °F - 33.8 °F 33% 29.98 in 10.0 mi South 10.4 mph 18.4 mph N/A   Unknown
6:15 PM 62.1 °F - 35.2 °F 37% 29.97 in 10.0 mi South 10.4 mph - N/A   Unknown
6:35 PM 61.9 °F - 35.6 °F 38% 29.97 in 10.0 mi South 12.7 mph - N/A   Unknown
6:55 PM 61.2 °F - 36.9 °F 40% 29.97 in 10.0 mi South 8.1 mph - N/A   Unknown
7:15 PM 61.7 °F - 37.4 °F 41% 29.98 in 10.0 mi South 11.5 mph - N/A   Unknown
7:35 PM 61.0 °F - 38.1 °F 43% 29.98 in 10.0 mi South 11.5 mph 19.6 mph N/A   Unknown
7:55 PM 61.2 °F - 38.5 °F 43% 29.98 in 10.0 mi South 12.7 mph 18.4 mph N/A   Unknown
8:15 PM 61.5 °F - 39.2 °F 44% 29.98 in 10.0 mi South 12.7 mph 19.6 mph N/A   Unknown
8:35 PM 61.3 °F - 39.4 °F 44% 29.98 in 10.0 mi South 12.7 mph 17.3 mph N/A   Unknown
8:55 PM 60.8 °F - 40.1 °F 46% 29.98 in 10.0 mi South 11.5 mph - N/A   Unknown
9:15 PM 60.6 °F - 40.3 °F 47% 29.98 in 10.0 mi South 12.7 mph - N/A   Unknown
9:35 PM 60.8 °F - 40.5 °F 47% 29.98 in 10.0 mi South 11.5 mph - N/A   Unknown
9:55 PM 60.3 °F - 41.0 °F 49% 29.98 in 10.0 mi South 9.2 mph 18.4 mph N/A   Unknown
10:15 PM 60.3 °F - 41.2 °F 49% 29.98 in 10.0 mi SSW 9.2 mph - N/A   Unknown
10:35 PM 60.4 °F - 41.2 °F 49% 29.98 in 10.0 mi SSW 11.5 mph - N/A   Unknown
10:55 PM 60.3 °F - 41.5 °F 50% 29.97 in 10.0 mi SSW 13.8 mph 18.4 mph N/A   Unknown
11:15 PM 60.8 °F - 41.9 °F 50% 29.98 in 10.0 mi SSW 9.2 mph 16.1 mph N/A   Unknown
11:35 PM 60.4 °F - 41.9 °F 50% 29.97 in 10.0 mi South 9.2 mph - N/A   Unknown
11:55 PM 60.3 °F - 42.1 °F 51% 29.97 in 10.0 mi SSW 10.4 mph - N/A   Unknown